Find Starlink 31144

NORAD ID: 58682 Int'l Des: 2023-211 Owner: SPXS Country: US Constellation: starlink operational
LEOCIRCULAR

Current View

Loading 3D Globe...

About Starlink 31144

Starlink 31144 (NORAD 58682) is a starlink constellation satellite (v2 mini) launched Dec 29, 2023 by SPXS of US. It operates in LEO, CIRCULAR orbit with a mass of 730.00 kg.

About Starlink 31144

Description loading...

Upcoming Passes

Passes for default location (London). Set your location on the main map for personalized predictions.

Altitude History

Loading altitude history...

Two-Line Element Set

1 58682U 23211R 26177.71605192 -.00003204 00000-0 -10692-3 0 9994
2 58682 42.9994 189.1308 0002984 279.9713 80.0802 15.27575166139140
Epoch: Jun 26, 2026 • Age: 7 hours

Current Status

Altitude 483.1 km
Velocity 7.63 km/s
Sub-Earth Point 11.31°N, 77.43°E
Launch Date Dec 29, 2023
Age 2.4 years
Type internet

Technical Details

Classification Payload
Mass 730.00 kg
Dry Mass 700.00 kg
Total Mass 730.00 kg
Length 0.30 m
Diameter 4.10 m
Span 29.00 m
Shape Box + pan
Manufacturer SPXS
Bus Type Starlink V2M
Phase Status In Orbit
Owner/State SPXS/US

Most Searched